[[{"header":{"parameterUnit":"m.s-1","parameterCategory":1,"la1":30.2991,"la2":30.254,"lo1":-89.0895,"lo2":-89.0444,"dy":0.0017,"dx":0.0017,"nx":28,"ny":28,"refTime":"2024-08-11T09:00:00:Z","depth":0,"parameterNumber":2,"parameterNumberName":"U-component_of_WINDS"},"data":[0,0,0,0,0,0,0,0,0,0,0,0,0,0,0,0,0,0,0,0,0,0,0,0,0,0,0,0,0,0,0,0,0,0,0,0,0,0,0,0,0,0,0,0,0,0,0,0,0,0,0,0,0,0,0,0,0,0,3.2815,3.2815,0,3.29,3.2901,3.2902,3.2855,3.2853,3.2851,3.2848,3.2936,3.294,3.2944,0,0,0,0,0,0,0,0,0,0,0,0,0,3.261,3.2614,3.2814,3.2816,3.2817,3.2899,3.2901,3.2902,3.2856,3.2853,3.285,3.2847,3.2934,3.2939,3.2945,0,0,0,0,0,0,0,0,0,0,0,0,0,3.2698,3.2616,3.2814,3.2804,3.2803,3.2899,3.2901,3.2902,3.2856,3.2853,3.2849,3.2846,3.2932,3.2939,3.2946,3.3057,0,0,3.2966,3.2969,0,0,0,0,0,0,0,0,3.2693,3.2705,3.2804,3.2804,3.2805,3.2863,3.2861,3.2954,3.2857,3.2836,3.2848,3.2844,3.2914,3.2922,3.2946,3.3061,3.3065,3.2967,3.2971,3.2974,3.2976,0,0,0,0,0,0,0,3.2687,3.2701,3.2848,3.2806,3.2806,3.2794,3.2803,3.2878,3.2894,3.2838,3.2835,3.2845,3.2914,3.294,3.2948,3.3066,3.2966,3.2972,3.2977,3.2979,3.3273,3.3277,0,0,0,0,0,0,3.2682,3.2697,3.2845,3.2851,3.2739,3.2801,3.281,3.2848,3.2893,3.2896,3.2848,3.2843,3.293,3.294,3.2951,3.3081,3.2974,3.298,3.2984,3.3269,3.3274,3.3278,0,0,0,0,0,0,3.2677,3.2695,3.2842,3.2773,3.2791,3.2808,3.2851,3.2851,3.2877,3.2901,3.2903,3.2872,3.2927,3.2941,3.303,3.3083,3.2983,3.2989,3.3265,3.3271,3.3276,3.3344,0,0,0,0,0,0,3.2672,3.2694,3.2737,3.2774,3.2794,3.2921,3.2854,3.2856,3.2889,3.2883,3.2923,3.2927,3.2926,3.302,3.3037,3.3091,3.2994,3.326,3.3267,3.3274,3.3337,3.3351,3.3364,0,0,0,0,0,3.2665,3.2753,3.2739,3.2757,3.2848,3.2924,3.2935,3.2932,3.2893,3.2936,3.2951,3.2925,3.3076,3.303,3.3048,3.3105,3.3257,3.3265,3.3273,3.3331,3.3349,3.3363,0,0,0,0,0,0,3.2722,3.2758,3.2743,3.2846,3.2882,3.2916,3.2969,3.2951,3.2999,3.2991,3.2985,3.2995,3.3087,3.3105,3.3053,3.3213,3.316,3.3172,3.3197,3.3214,3.3227,3.3219,3.3,0,0,0,0,0,3.2747,3.2805,3.2834,3.2922,3.2941,3.2952,3.2985,3.298,3.3016,3.3031,3.3053,3.309,3.3144,3.3181,3.3233,3.334,3.3347,3.3388,3.3402,3.3412,3.3422,3.3477,3.3495,3.3306,3.3306,3.3305,0,0,3.2799,3.2825,3.2863,3.2934,3.2962,3.3021,3.2965,3.3032,3.3075,3.3042,3.3125,3.3143,3.3183,3.3281,3.3325,3.3299,3.3477,3.3423,3.3432,3.3436,3.3488,3.3506,3.3522,3.3311,3.331,3.3309,0,0,3.2922,3.295,3.3025,3.3053,3.3095,3.3102,3.312,3.3156,3.3166,3.325,3.3225,3.3278,3.3373,3.3402,3.3429,3.3563,3.354,3.3581,3.3649,3.3702,3.3717,3.373,3.3775,3.3791,3.3591,3.3591,3.3591,0,3.2981,3.307,3.3066,3.3133,3.3164,3.3137,3.3212,3.324,3.3296,3.3318,3.3289,3.3406,3.3432,3.3534,3.3567,3.3591,3.361,3.3574,3.3716,3.3729,3.3741,3.3783,3.38,3.3596,3.3595,3.3595,3.3594,0,3.3138,3.3201,3.3257,3.3311,3.3349,3.342,3.3426,3.3465,3.3456,3.3466,3.3551,3.3581,3.3637,3.3662,3.3655,3.3763,3.3745,3.3716,3.3661,3.3763,3.3803,3.3819,3.3602,3.36,3.3599,3.3598,0,0,3.33,3.335,3.3371,3.3394,3.3437,3.3485,3.3554,3.3609,3.3641,3.3682,3.3738,3.3819,3.3792,3.3823,3.3818,3.3866,3.3966,3.3831,3.3832,3.3852,3.4084,3.4103,3.4122,3.3953,3.3956,3.3958,3.4079,0,3.3424,3.3544,3.3542,3.3654,3.3709,3.3684,3.3744,3.3777,3.3788,3.3836,3.3848,3.3904,3.3866,3.3884,3.393,3.3944,3.4012,3.3936,3.4003,3.4005,3.399,3.4143,3.4164,3.4277,3.4095,3.4098,3.41,0,3.3584,3.3628,3.3745,3.3778,3.3802,3.3856,3.3904,3.3952,3.3988,3.3992,3.4027,3.4014,3.4083,3.4029,3.4123,3.4071,3.4099,3.411,3.4114,3.4118,3.4056,3.4148,3.4313,3.4329,3.4125,3.4123,3.4121,0,3.3686,3.3775,3.3855,3.3877,3.3918,3.3956,3.3975,3.4008,3.404,3.4084,3.4104,3.4155,3.4182,3.4221,3.4223,3.4184,3.4317,3.4263,3.432,3.432,3.4347,3.4345,3.4516,3.4371,3.437,3.437,3.437,0,3.3823,3.3894,3.3901,3.3951,3.4029,3.4027,3.4105,3.412,3.4149,3.42,3.4182,3.423,3.4231,3.428,3.4282,3.4357,3.4371,3.4375,3.4374,3.4375,3.4374,3.439,3.4381,3.4374,3.4373,3.4373,3.4372,0,3.3949,3.3957,3.4042,3.4074,3.4084,3.414,3.4167,3.4213,3.4223,3.4287,3.4302,3.4317,3.4373,3.4379,3.4446,3.4446,3.4537,3.4529,3.4524,3.4522,3.4577,3.457,3.4762,3.4786,3.4628,3.463,3.4631,0,3.4034,3.4088,3.4125,3.4158,3.4179,3.4232,3.4265,3.4264,3.4298,3.4343,3.4383,3.4438,3.4481,3.4572,3.4588,3.4638,3.4629,3.4693,3.4637,3.4635,3.4626,3.4622,3.4626,3.4703,3.4705,3.4706,3.4708,0,3.4183,3.4184,3.4231,3.428,3.4319,3.4357,3.4393,3.4421,3.4425,3.4464,3.4521,3.4555,3.4621,3.4675,3.4724,3.4743,3.4725,3.4726,3.4741,3.474,3.4734,3.4735,3.455,3.472,3.4719,3.4718,3.4717,3.4717,3.4289,3.4335,3.4368,3.442,3.4447,3.4481,3.4525,3.4539,3.4587,3.464,3.4638,3.47,3.4733,3.4796,3.4819,3.4867,3.4846,3.4869,3.4874,3.4879,3.4882,3.4729,3.4877,3.4876,3.4876,3.4876,3.4875,0,3.4434,3.4454,3.4503,3.4553,3.4594,3.4575,3.4613,3.4648,3.4703,3.4736,3.4778,3.4843,3.4894,3.4914,3.4964,3.4999,3.4992,3.5012,3.5007,3.5011,3.4901,3.4881,3.5016,3.5016,3.5016,3.5016,3.5016,3.5016,3.4515,3.459,3.4595,3.4683,3.4702,3.4762,3.4785,3.4815,3.4841,3.4913,3.4956,3.4969,3.4995,3.5047,3.5093,3.5097,3.5115,3.5138,3.5139,3.5034,3.502,3.5006,3.4987,3.5143,3.5143,3.5245,3.5246,3.5247]},{"header":{"parameterUnit":"m.s-1","parameterCategory":1,"la1":30.2991,"la2":30.254,"lo1":-89.0895,"lo2":-89.0444,"dy":0.0017,"dx":0.0017,"nx":28,"ny":28,"refTime":"2024-08-11T09:00:00:Z","depth":0,"parameterNumber":3,"parameterNumberName":"V-component_of_WINDS"},"data":[0,0,0,0,0,0,0,0,0,0,0,0,0,0,0,0,0,0,0,0,0,0,0,0,0,0,0,0,0,0,0,0,0,0,0,0,0,0,0,0,0,0,0,0,0,0,0,0,0,0,0,0,0,0,0,0,0,0,1.8958,1.8958,0,1.9013,1.9013,1.9014,1.9007,1.9006,1.9005,1.9004,1.9059,1.9062,1.9064,0,0,0,0,0,0,0,0,0,0,0,0,0,1.8843,1.8845,1.8957,1.8958,1.8959,1.9013,1.9014,1.9014,1.9007,1.9006,1.9005,1.9004,1.9059,1.9061,1.9064,0,0,0,0,0,0,0,0,0,0,0,0,0,1.8895,1.8846,1.8957,1.8962,1.8963,1.9013,1.9014,1.9014,1.9007,1.9006,1.9004,1.9003,1.9058,1.9061,1.9064,1.9113,0,0,1.9075,1.9077,0,0,0,0,0,0,0,0,1.8892,1.8899,1.896,1.8961,1.8963,1.9001,1.8993,1.9048,1.9007,1.899,1.9004,1.9002,1.9041,1.9046,1.9059,1.9116,1.9118,1.9075,1.9077,1.9079,1.908,0,0,0,0,0,0,0,1.8888,1.8897,1.8979,1.8961,1.8963,1.896,1.8966,1.9004,1.9023,1.8992,1.8991,1.8998,1.9041,1.9056,1.906,1.9119,1.9075,1.9078,1.9081,1.9082,1.9217,1.9218,0,0,0,0,0,0,1.8884,1.8894,1.8978,1.8981,1.8923,1.8963,1.897,1.899,1.9022,1.9026,1.8999,1.8997,1.9051,1.9056,1.9062,1.912,1.9079,1.9082,1.9084,1.9215,1.9217,1.9219,0,0,0,0,0,0,1.8881,1.8891,1.8975,1.8937,1.8948,1.8967,1.899,1.8992,1.9007,1.9028,1.9031,1.901,1.905,1.9057,1.91,1.9122,1.9084,1.9087,1.9213,1.9216,1.9218,1.9238,0,0,0,0,0,0,1.8878,1.8891,1.891,1.8938,1.895,1.9013,1.8991,1.8994,1.9013,1.9011,1.9039,1.9043,1.9049,1.9095,1.9104,1.9126,1.909,1.9211,1.9214,1.9217,1.9235,1.924,1.9245,0,0,0,0,0,1.8874,1.8914,1.8911,1.8921,1.8975,1.9015,1.9021,1.9029,1.9015,1.9034,1.9047,1.9042,1.9119,1.91,1.9109,1.9133,1.921,1.9214,1.9217,1.9233,1.9239,1.9245,0,0,0,0,0,0,1.8888,1.8917,1.8915,1.8965,1.8987,1.9013,1.9038,1.9035,1.9062,1.9059,1.9067,1.9073,1.9116,1.9129,1.9107,1.9181,1.9162,1.9168,1.9171,1.9177,1.9182,1.9178,1.9093,0,0,0,0,0,1.8897,1.8927,1.8951,1.8993,1.9004,1.9019,1.9037,1.904,1.9064,1.9073,1.909,1.9112,1.9141,1.916,1.9188,1.9237,1.9242,1.9258,1.9263,1.9267,1.9271,1.9296,1.9303,1.923,1.923,1.9229,0,0,1.8915,1.8935,1.8954,1.8996,1.9014,1.9044,1.9027,1.9061,1.9083,1.9078,1.9119,1.9132,1.9157,1.9203,1.9224,1.9215,1.9293,1.9271,1.9274,1.9276,1.93,1.9307,1.9314,1.9232,1.9231,1.9231,0,0,1.8964,1.8983,1.9019,1.9037,1.9064,1.9074,1.9082,1.9108,1.9117,1.9158,1.9155,1.9181,1.9232,1.9249,1.9265,1.9319,1.9315,1.9328,1.9353,1.9378,1.9384,1.9389,1.9407,1.9413,1.9333,1.9333,1.9333,0,1.8984,1.903,1.9037,1.9071,1.9089,1.9086,1.9121,1.9139,1.9173,1.9185,1.9175,1.9237,1.9254,1.9303,1.9316,1.933,1.9338,1.9325,1.9382,1.9387,1.9392,1.941,1.9417,1.9334,1.9334,1.9334,1.9334,0,1.9052,1.9084,1.911,1.9143,1.9164,1.9199,1.921,1.923,1.9232,1.9242,1.9283,1.9304,1.9335,1.9347,1.9349,1.9396,1.9389,1.9381,1.9362,1.9401,1.9417,1.9424,1.9336,1.9336,1.9335,1.9335,0,0,1.9112,1.9148,1.9157,1.9172,1.9201,1.9226,1.9259,1.929,1.9307,1.9331,1.9358,1.94,1.9392,1.941,1.9413,1.9435,1.9475,1.9423,1.9424,1.9431,1.9527,1.9532,1.954,1.9472,1.9474,1.9475,1.9524,0,1.9163,1.9223,1.923,1.9283,1.9312,1.9309,1.9338,1.9358,1.9369,1.9394,1.9405,1.9434,1.9422,1.9432,1.9453,1.9466,1.9494,1.9462,1.9497,1.9498,1.949,1.9549,1.9556,1.9601,1.9531,1.9532,1.9533,0,1.9231,1.9256,1.9312,1.9336,1.9349,1.9375,1.9403,1.9428,1.945,1.9456,1.9475,1.9476,1.9509,1.9489,1.9534,1.9513,1.9527,1.9535,1.9537,1.954,1.9517,1.9552,1.9616,1.9623,1.9543,1.9542,1.9541,0,1.9267,1.9316,1.9355,1.9368,1.9397,1.9415,1.9428,1.9449,1.9467,1.9491,1.9502,1.953,1.9545,1.9566,1.9574,1.9559,1.9618,1.9599,1.9623,1.9623,1.9635,1.9634,1.9701,1.9646,1.9646,1.9646,1.9646,0,1.9323,1.9357,1.9371,1.9396,1.9433,1.944,1.9477,1.9489,1.9508,1.9533,1.9533,1.9556,1.9565,1.959,1.9596,1.9632,1.9639,1.9644,1.9645,1.9644,1.9643,1.9653,1.9649,1.9648,1.9647,1.9647,1.9647,0,1.937,1.9381,1.9424,1.9448,1.9454,1.9481,1.9501,1.9524,1.9533,1.9565,1.9573,1.9588,1.9617,1.9627,1.9662,1.9666,1.9708,1.9707,1.97,1.97,1.9723,1.972,1.9798,1.9808,1.9747,1.9748,1.9748,0,1.9404,1.9431,1.9457,1.9474,1.9488,1.9516,1.9534,1.9541,1.9559,1.9586,1.9606,1.9635,1.9658,1.9705,1.9718,1.9745,1.9744,1.9769,1.9748,1.9745,1.9743,1.9741,1.9743,1.9773,1.9773,1.9774,1.9774,0,1.9464,1.9468,1.9494,1.9522,1.9543,1.9565,1.9586,1.96,1.9611,1.9631,1.9661,1.968,1.9715,1.9744,1.9771,1.9783,1.978,1.9781,1.9788,1.9786,1.9781,1.9783,1.971,1.9779,1.9779,1.9778,1.9778,1.9778,1.9505,1.9528,1.955,1.9578,1.9595,1.9614,1.9637,1.9649,1.9674,1.9704,1.9707,1.9739,1.9759,1.9795,1.9809,1.9833,1.9826,1.9836,1.9838,1.984,1.9841,1.9778,1.9838,1.9838,1.9838,1.9838,1.9838,0,1.9564,1.9578,1.9604,1.9633,1.9655,1.9651,1.9674,1.9693,1.9721,1.9741,1.9764,1.9797,1.9824,1.984,1.9867,1.9883,1.9882,1.989,1.9888,1.9891,1.9847,1.9838,1.989,1.989,1.989,1.989,1.989,1.989,1.9597,1.9634,1.9641,1.9686,1.9699,1.973,1.9744,1.9761,1.9777,1.9815,1.9837,1.9847,1.9864,1.9892,1.9917,1.992,1.993,1.9938,1.9941,1.9899,1.9894,1.9889,1.988,1.994,1.994,1.9982,1.9982,1.9983]}]]